EW4194 Weather Reports


time (UTC)temp
F
wind
direction
speed
knots
gust
knots
rain 1hr
in
rain 24hr
in
rain mn
in
humidity
%
barometer
mb
20260506113040 49 318 0.0 1.7 0.00 0.00 0.00 59 1009.2
20260506111539 52 318 0.0 0.9 0.00 0.00 0.00 53 1009.0
20260506110034 52 318 1.7 3.5 0.00 0.00 0.00 53 1008.7
20260506104532 53 314 0.9 3.5 0.00 0.00 0.00 51 1008.7
20260506103032 53 323 1.7 4.3 0.00 0.00 0.00 52 1008.7
20260506101529 53 29 0.0 2.6 0.00 0.00 0.00 52 1008.5
20260506100027 53 300 0.9 3.5 0.00 0.00 0.00 50 1008.4
20260506094532 53 241 0.0 0.9 0.00 0.00 0.00 50 1008.2
20260506093039 53 39 0.0 0.0 0.00 0.00 0.00 50 1007.9
20260506091521 55 39 0.0 0.0 0.00 0.00 0.00 50 1007.8
20260506090015 56 39 0.0 0.0 0.00 0.00 0.00 47 1007.7
20260506084511 58 39 0.0 0.0 0.00 0.00 0.00 42 1007.7
20260506083009 60 300 0.0 2.6 0.00 0.00 0.00 38 1007.6
20260506081505 61 317 0.0 5.2 0.00 0.00 0.00 37 1007.6
20260506073104 62 273 3.5 7.0 0.00 0.00 0.00 31 1007.2
20260506071556 62 285 1.7 5.2 0.00 0.00 0.00 32 1006.9
20260506070114 63 264 1.7 5.2 0.00 0.00 0.00 31 1006.8
20260506061545 65 235 2.6 6.1 0.00 0.00 0.00 29 1006.5
20260506044552 69 267 6.1 10.4 0.00 0.00 0.00 24 1005.8
20260506043038 70 250 7.0 11.3 0.00 0.00 0.00 23 1005.5
20260506041547 70 231 7.0 15.6 0.00 0.00 0.00 23 1005.4
20260506040042 71 266 7.8 15.6 0.00 0.00 0.00 22 1005.1
20260506034537 71 239 7.0 15.6 0.00 0.00 0.00 21 1004.9
20260506033035 72 229 7.0 16.5 0.00 0.00 0.00 21 1004.8
20260506031548 72 238 11.3 15.6 0.00 0.00 0.00 21 1004.4
20260506030038 73 245 7.8 16.5 0.00 0.00 0.00 22 1004.3
20260506024536 73 284 7.8 15.6 0.00 0.00 0.00 22 1003.9
20260506023036 74 223 10.4 17.4 0.00 0.00 0.00 22 1003.8
20260506021532 74 235 12.2 16.5 0.00 0.00 0.00 23 1003.4
20260506020031 75 237 8.7 16.5 0.00 0.00 0.00 22 1003.2
20260506014531 75 246 14.8 23.5 0.00 0.00 0.00 21 1002.9
20260506013030 75 243 12.2 18.2 0.00 0.00 0.00 22 1002.7
20260506011530 76 229 9.6 20.0 0.00 0.00 0.00 22 1002.6
20260506010032 77 249 8.7 17.4 0.00 0.00 0.00 22 1002.6
20260506004537 77 231 12.2 19.1 0.00 0.00 0.00 22 1002.4
20260506003027 77 271 9.6 20.0 0.00 0.00 0.00 22 1002.4
20260506001526 78 259 9.6 17.4 0.00 0.00 0.00 23 1002.5
20260506000023 77 255 7.0 17.4 0.00 0.00 0.00 26 1002.3
20260505234548 76 264 7.8 20.0 0.00 0.00 0.00 27 1002.4
20260505233021 77 245 7.0 15.6 0.00 0.00 0.00 27 1002.5
20260505231520 76 255 8.7 16.5 0.00 0.00 0.00 28 1002.5
20260505230018 77 289 6.1 12.2 0.00 0.00 0.00 28 1002.6
20260505224525 76 262 9.6 20.9 0.00 0.00 0.00 28 1002.8
20260505223013 76 254 7.0 15.6 0.00 0.00 0.00 32 1003.2
20260505221512 76 295 7.0 13.9 0.00 0.00 0.00 31 1003.5
20260505220011 76 297 7.8 17.4 0.00 0.00 0.00 31 1003.6
20260505214508 75 239 7.8 16.5 0.00 0.00 0.00 33 1003.9
20260505213005 75 264 9.6 15.6 0.00 0.00 0.00 33 1004.4
20260505211503 75 281 7.0 17.4 0.00 0.00 0.00 34 1004.5
20260505210003 75 235 9.6 17.4 0.00 0.00 0.00 34 1004.7
20260505204602 75 259 8.7 18.2 0.00 0.00 0.00 35 1005.0
20260505203058 73 305 4.3 13.9 0.00 0.00 0.00 38 1005.2
20260505201606 73 296 8.7 14.8 0.00 0.00 0.00 38 1005.5
20260505194602 71 328 7.8 17.4 0.00 0.00 0.00 42 1005.7
20260505193052 70 295 6.1 15.6 0.00 0.00 0.00 41 1006.4
20260505191554 71 282 5.2 14.8 0.00 0.00 0.00 40 1006.1
20260505190052 71 299 6.1 20.9 0.00 0.00 0.00 41 1006.2
20260505184550 71 233 7.0 16.5 0.00 0.00 0.00 37 1006.4
20260505183051 72 259 9.6 14.8 0.00 0.00 0.00 34 1006.1
20260505181548 73 255 7.8 15.6 0.00 0.00 0.00 35 1006.0
20260505180046 73 290 4.3 11.3 0.00 0.00 0.00 34 1005.8
20260505174547 72 283 7.0 12.2 0.00 0.00 0.00 35 1005.9
20260505173047 72 233 4.3 10.4 0.00 0.00 0.00 36 1005.9
20260505171543 72 233 0.9 8.7 0.00 0.00 0.00 36 1005.9
20260505170040 71 229 2.6 7.0 0.00 0.00 0.00 37 1006.0
20260505164538 70 250 0.9 3.5 0.00 0.00 0.00 38 1006.0
20260505163037 69 292 0.0 4.3 0.00 0.00 0.00 40 1006.0
20260505161540 69 222 0.0 3.5 0.00 0.00 0.00 41 1006.1
20260505153040 66 306 4.3 7.8 0.00 0.00 0.00 46 1006.1
20260505151536 66 332 3.5 7.0 0.00 0.00 0.00 47 1006.0
20260505124523 61 310 1.7 7.0 0.00 0.00 0.00 52 1006.3
20260505123021 61 315 1.7 4.3 0.00 0.00 0.00 51 1006.0
20260505121520 61 305 2.6 7.0 0.00 0.00 0.00 50 1006.0
20260505120018 62 328 5.2 10.4 0.00 0.00 0.00 49 1005.7
20260505114515 62 264 6.1 13.0 0.00 0.00 0.00 49 1005.6